| time (UTC) | temp C | wind direction | speed KPH | gust KPH | rain 1hr cm | rain 24hr cm | rain mn cm | humidity % | barometer mb |
| 20260506041855 | 6 | 220 | 32.2 | 45.1 | 0.00 | 0.00 | 0.00 | 99 | |
| 20260506031656 | 6 | 220 | 33.8 | 45.1 | 0.00 | 0.00 | 0.00 | 99 | |
| 20260506021656 | 6 | 230 | 32.2 | 51.5 | 0.00 | 0.00 | 0.00 | 99 | |
| 20260506011756 | 6 | 230 | 32.2 | 46.7 | 0.00 | 0.00 | 0.00 | 99 | |
| 20260506001655 | 6 | 260 | 45.1 | 59.5 | 0.00 | 0.00 | 0.00 | 93 | |
| 20260505231655 | 7 | 270 | 45.1 | 61.2 | 0.00 | 0.00 | 0.00 | 81 | |
| 20260505221654 | 7 | 290 | 32.2 | 45.1 | 0.00 | 0.00 | 0.00 | 87 | |
| 20260505211712 | 7 | 280 | 27.4 | 0.0 | 0.00 | 0.00 | 0.00 | 87 | |
| 20260505201711 | 8 | 230 | 33.8 | 0.0 | 0.00 | 0.00 | 0.00 | 76 | |
| 20260505191712 | 7 | 240 | 38.6 | 0.0 | 0.00 | 0.00 | 0.00 | 87 | |
| 20260505181655 | 10 | 310 | 27.4 | 41.8 | 0.00 | 0.00 | 0.00 | 76 | |
| 20260505171655 | 12 | 220 | 20.9 | 0.0 | 0.00 | 0.00 | 0.00 | 62 | |
| 20260505161755 | 15 | 90 | 3.2 | 0.0 | 0.00 | 0.00 | 0.00 | 47 | |
| 20260505151654 | 17 | 140 | 8.0 | 0.0 | 0.00 | 0.00 | 0.00 | 39 | |
| 20260505121655 | 16 | 120 | 4.8 | 0.0 | 0.00 | 0.00 | 0.00 | 44 | |
| 20260505111655 | 17 | 340 | 4.8 | 16.1 | 0.00 | 0.00 | 0.00 | 39 | |
| 20260505101655 | 17 | 330 | 9.7 | 20.9 | 0.00 | 0.00 | 0.00 | 39 | |
| 20260505091655 | 16 | 340 | 11.3 | 0.0 | 0.00 | 0.00 | 0.00 | 41 | |
| 20260505081656 | 15 | 330 | 8.0 | 0.0 | 0.00 | 0.00 | 0.00 | 47 | |
| 20260505071654 | 13 | 320 | 3.2 | 0.0 | 0.00 | 0.00 | 0.00 | 54 | |
| 20260505061656 | 12 | 330 | 4.8 | 0.0 | 0.00 | 0.00 | 0.00 | 54 | |
| 20260505051655 | 12 | 310 | 3.2 | 0.0 | 0.00 | 0.00 | 0.00 | 54 |